200 serials | cyberlink powercinema 4.7

Date Name Success Rate
2009-10-17 06:20:50 Cyberlink PowerCinema V4.0 16%
2009-10-17 06:20:50 CyberLink PowerCinema V6.0.0.1309 40%
2009-10-23 07:01:13 1st Security Agent 4.7 0%
2009-10-22 23:27:10 Access Manager 4.7 0%
2009-10-22 23:27:11 AceReader 4.7 0%
2009-10-22 23:27:11 AceReader 4.7 2 0%
2009-10-22 23:27:11 Acme CADSee 4.7 0%
2009-10-22 23:27:13 Ad Muncher 4.7 20%
2009-10-22 23:27:13 Ad-Muncher 4.7 0%
2009-10-22 23:27:17 Alarm Master Plus 4.7 0%
2009-10-22 23:27:25 Audit Wizard 4.7 0%
2009-10-22 23:27:26 Autoshutdown 4.7 0%
2009-10-22 23:27:26 Avast 4.7 60%
2009-10-22 23:27:26 Avast 4.7 Edición Profesional 0%
2009-10-22 23:27:26 Avast 4.7 Familliale 0%
2009-10-22 23:27:26 Avast 4.7 Home 0%
2009-10-22 23:27:26 Avast 4.7 Home Edition 0%
2009-10-22 23:27:26 Avast 4.7 Home Edition 4.7.892 0%
2009-10-22 23:27:26 Avast 4.7 Home Fr 0%
2009-10-22 23:27:26 Avast 4.7 Pro 0%
2009-10-22 23:27:26 Avast 4.7 Pro Fessional Editions 0%
2009-10-22 23:27:26 Avast 4.7 Professional 0%
2009-10-22 23:27:26 Avast 4.7 Professional 4.7.1098 0%
2009-10-22 23:27:26 Avast 4.7 Professional 4.7.10980 0%
2009-10-22 23:27:26 Avast 4.7 Professional Edition 0%
2009-10-22 23:27:27 Avast Antivirus 4.7 Home 0%
2009-10-22 23:27:27 Avast Antivirus 4.7 Pro 0%
2009-10-22 23:27:27 Avast Home 4.7 0%
2009-10-22 23:27:27 Avast Home Edition 4.7 0%
2009-10-22 23:27:27 Avast Pro 4.7 0%
2009-10-22 23:27:27 Avast Pro 4.7 2130 Days 0%
2009-10-22 23:27:27 Avast Prov.4.7 0%
2009-10-22 23:27:27 Avast! 4.7 Home Edition 0%
2009-10-22 23:27:27 Avast! 4.7 Pro Edition 0%
2009-10-22 23:27:27 Avast! Home Edition 4.7 0%
2009-10-22 23:27:27 Avast! Professional 4.7(Victor_ScB) 0%
2009-10-22 23:27:27 Avast! V.4.7 Professional Edition 0%
2009-10-22 23:27:27 AvastHome 4.7 0%
2009-10-22 23:44:49 Better File Rename 4.7 0%
2009-10-22 23:44:51 BPM-estudio 4.7 Private 52%
2009-10-22 23:45:48 Calendar 200X 4.7 0%
2009-10-22 23:45:49 Cartoon Maker 4.7 60%
2009-10-22 23:45:57 CyberLink PowerCinema 0%
2009-10-22 23:45:57 Cyberlink - PowerCinema 2.0 Plus 0%
2009-10-22 23:45:57 Cyberlink 8 64%
2009-10-22 23:45:57 Cyberlink Power 33%
2009-10-22 23:45:57 Cyberlink PowerCinema 0%
2009-10-22 23:45:57 Cyberlink PowerCinema 4.0 0%
2009-10-22 23:45:57 CyberLink PowerCinema 6.0.1309 73%
2009-10-22 23:45:57 CyberLink PowerCinema Suite 1.0 65%
2009-10-22 23:45:57 CyberLink PowerCinema V6.0.0.1309 0%
2009-10-22 23:45:57 CyberLink PowerCinema V6.0.2221 0%
2009-10-22 23:45:57 CyberLink PowerDVD 0%
2009-10-22 23:45:57 Cyberlink PowerDVD5 0%
2009-10-22 23:45:57 Cyberlink PowerDVD7 0%
2009-10-22 23:45:57 Cyberlink PowerProducer 0%
2009-10-22 23:45:57 Cyberlink SEX 69%
2009-10-22 23:46:26 DevComponents DotNetBar Suite 4.7 0%
2009-10-22 23:46:27 Digital Audio Editor 4.7 0%
2009-10-22 23:46:28 Drivermax 4.7 0%
2009-10-22 23:46:30 DVDInfo Pro 4.7 0%
2009-10-22 23:47:43 Extra Drive Creator Professional 4.7 0%
2009-10-22 23:47:53 Free Internet Tv 4.7 55%
2009-10-22 23:48:01 GSview 4.7 0%
2009-10-22 23:48:14 IDEAL Calendar 4.7 0%
2009-10-22 23:48:18 IsItUp 4.7 0%
2009-10-22 23:48:30 Keystroke Converter 4.7 60%
2009-10-22 23:48:45 MagicISO 4.7 (Build 0132) 13%
2009-10-22 23:48:45 MagicISO Maker 4.7 Build 0132 0%
2009-10-22 23:48:45 Mailer 4.7 80%
2009-10-22 23:48:48 Medion PowerCinema 20%
2009-10-22 23:48:53 MySQL Studio 4.7 0%
2009-10-22 23:49:01 No1 Media Fixer Pro 4.7 0%
2009-10-22 23:49:02 NTI Backup NOW! 4.7 0%
2009-10-22 23:49:22 Photobuilder 4.7 0%
2009-10-22 23:49:25 Powercinema 0%
2009-10-22 23:49:25 PowerCinema 5 11%
2009-10-22 23:49:25 PowerCinema 4 57%
2009-10-22 23:49:25 PowerCinema 5 20%
2009-10-22 23:49:25 Powercinema 6 0%
2009-10-22 23:49:25 PowerCinema V4.0 0%
2009-10-22 23:49:35 QuickGrid 4.7 0%
2009-10-22 23:49:41 Railroad And Co TrainMonitor 4.7 0%
2009-10-22 23:49:44 Romi 4.7 0%
2009-10-22 23:49:53 ShareCon 4.7 0%
2009-10-22 23:50:11 Tips 4.7 0%
2009-10-22 23:50:13 Trialbest Office Organizer 4.7 0%
2009-10-22 23:50:33 Wave Flow 4.7 0%
2009-10-22 23:50:33 Waveflow 4.7 0%
2009-10-22 23:50:57 Zero PopUp Killer XP 4.7 0%
2011-09-08 09:57:40 Access Manager 4.7 0%
2011-09-08 09:57:43 Access To VB 4.7 0%
2011-09-08 09:58:34 Acme CADSee 4.7 0%
2011-09-08 10:02:41 AI Picture Utility 4.7 0%
2011-09-08 10:04:51 Alarm Master Plus 4.7 0%
2011-09-08 10:04:51 Alarm++ 4.7 0%
2011-09-08 10:05:35 All Media Fixer 4.7 0%
2011-09-08 10:05:35 All Media Fixer Pro 4.7 0%
2011-09-08 10:05:38 All Video Converter 4.7 0%
2011-09-08 10:12:48 Avast 4.7 0%
2011-09-08 10:12:48 Avast 4.7 Home Edition 0%
2011-09-08 10:12:48 Avast 4.7 Pro 0%
2011-09-08 10:12:48 Avast Antivirus 4.7 0%
2011-09-08 10:12:48 Avast Antivirus home edition 4.7 4.7 0%
2011-09-08 10:12:48 Avast Home Edition (Antivirus) 4.7 0%
2011-09-08 10:12:48 avast professional 4.7 0%
2011-09-08 10:12:51 Avast! Antivirus 4.7 Home Edition 0%
2011-09-08 10:12:51 Avast! Home Edition 4.7 0%
2011-09-08 10:12:55 Avast! PRO 4.7 0%
2011-09-08 10:12:55 Avast! Professional Edition 4.7 0%
2011-09-08 10:20:14 BlackBoard Internet Privacy Interface 4.7 0%
2011-09-08 10:21:58 Bulk E-Mailer 4.7 0%
2011-09-08 10:23:14 Calendar 200X 4.7 0%
2011-09-08 10:25:53 CherryDelight Slots 4.7 0%
2011-09-08 10:28:05 CoMa 4.7 0%
2011-09-08 10:33:15 Cyberlink PowerDVD v6.0.0.1102 0%
2011-09-08 10:33:15 Cyberlink 5 69%
2011-09-08 10:33:15 Cyberlink Linktel 3.0b 0%
2011-09-08 10:33:15 Cyberlink MediaShow 2.0 60%
2011-09-08 10:33:15 CyberLink MediaShow 2.0.9 0%
2011-09-08 10:33:15 Cyberlink Power DVD 6.0.0.1102 0%
2011-09-08 10:33:15 Cyberlink Power DVD XP 0%
2011-09-08 10:33:15 CyberLink Power2Go 6.0.0 0%
2011-09-08 10:33:15 Cyberlink PowerCinema 4.0 0%
2011-09-08 10:33:15 CyberLink PowerCinema 6.0.1309 0%
2011-09-08 10:33:15 CyberLink PowerCinema 6.0.2221 30%
2011-09-08 10:33:15 CyberLink PowerDirector 5.0 20%
2011-09-08 10:33:15 Cyberlink PowerDirector Pro 2.1 0%
2011-09-08 10:33:17 CyberLink PowerDirector v1.01 0%
2011-09-08 10:33:17 CyberLink PowerDVD 0%
2011-09-08 10:33:17 Cyberlink PowerDVD 5 0%
2011-09-08 10:33:17 CyberLink PowerDVD 7 0%
2011-09-08 10:33:17 CyberLink PowerDVD Copy v1.0.0625 0%
2011-09-08 10:33:20 Cyberlink SEX 53%
2011-09-08 10:42:40 Deep Green Reversi 4.7 0%
2011-09-08 10:43:15 DevComponents DotNetBar Suite 4.7 20%
2011-09-08 10:44:34 Double Dynamite Video Slots 4.7 0%
2011-09-08 10:47:00 Easy GIF Animator 4.7 0%
2011-09-08 10:48:48 Editeur 4.7 0%
2011-09-08 10:50:37 Extension Overload 4.7 0%
2011-09-08 10:50:45 Extra Drive Creator Pro 4.7 0%
2011-09-08 10:50:45 Extra Drive Creator Professional 4.7 0%
2011-09-08 10:50:47 Extra Subst 4.7 0%
2011-09-08 10:54:03 FAX Messaging Gateway 4.7 0%
2011-09-08 10:55:24 Flash ScreenSaver Builder 4.7 041111 0%
2011-09-08 11:02:36 Ghost View 4.7 0%
2011-09-08 11:02:38 GhostView 4.7 0%
2011-09-08 11:03:45 GSview 4.7 0%
2011-09-08 11:06:02 Hardwood Hearts 1.1 Build 4.7 0%
2011-09-08 11:13:48 IDEAL Calendar 4.7 0%
2011-09-08 11:13:51 IDEAL.Calendar 4.7 0%
2011-09-08 11:16:53 InvisiMail Pro 4.7 0%
2011-09-08 11:17:00 IP Monitor Suite 4.7 0%
2011-09-08 11:17:21 IsItUp Small Business 4.7 0%
2011-09-08 11:21:43 Keystroke Converter 4.7 0%
2011-09-08 11:27:31 Lucky Stars Slots 4.7 0%
2011-09-08 11:28:34 MagicISO 4.7 0%
2011-09-08 11:28:34 MagicISO Maker 4.7 Build 0%
2011-09-08 11:28:34 MagicISO Maker 4.7 Build 0134 0%
2011-09-08 11:29:12 Malz++Kassner CAD 4.7 100%
2011-09-08 11:29:12 Malz++Kassner CAD 4.7 Economy 0%
2011-09-08 11:30:01 McFunSoft Audio Editor 4.7 0%
2011-09-08 11:30:27 Medion PowerCinema 0%
2011-09-08 11:43:22 NoteBook 2000 4.7 0%
2011-09-08 12:25:19 Multimedia Builder MP3 4.7 0%
2011-09-08 12:25:54 MySQL Studio 4.7 0%
2011-09-08 12:29:00 PC OMR 4.7 0%
2011-09-08 12:35:52 Powercinema 0%
2011-09-08 12:35:52 PowerCinema Medion 0%
2011-09-08 12:35:57 PowerISO 4.7 0%
2011-09-08 12:36:00 PowerProducer Cyberlink 0%
2011-09-08 12:36:44 Q-Tips 4.7 0%
2011-09-08 12:37:34 QuickGrid 4.7 0%
2011-09-08 12:40:09 Railroad and Co TrainMonitor 4.7 0%
2011-09-08 12:40:21 RAM Swapfile Monitor 4.7 100%
2011-09-08 12:44:04 Romi 4.7 0%
2011-09-08 12:45:52 Screen Loupe 4.7 0%
2011-09-08 12:47:08 ShareCon 4.7 0%
2011-09-08 12:49:29 Sniffer Pro 4.7 0%
2011-09-08 12:49:37 Softboy.net Exe Icon Changer 4.7 0%
2011-09-08 12:49:48 Softstack Bulk E-mailer 4.7 0%
2011-09-08 12:54:03 Timbuktu Pro 4.7 0%
2011-09-08 12:55:32 TreePad PLUS 4.7 0%
2011-09-08 12:56:30 TxEdit 4.7 0%
2011-09-08 12:59:04 StretchBreak Pro 4.7 0%
2011-09-08 13:11:25 VDialPro 4.7 0%
2011-09-08 13:13:25 VuePrint 4.7 0%
2011-09-08 13:15:42 Watchman 4.7 0%
2011-09-08 13:15:45 Wave Flow 4.7 0%
2011-09-08 13:15:47 Waveflow 4.7 0%
2011-09-08 13:15:47 WavePurity Deluxe Bilingual 4.7 0%
2011-09-08 13:17:47 WinBoost 4.7 0%
2011-09-08 13:23:43 Zero PopUp Killer XP 4.7 0%
2012-12-12 03:11:28 Avast 4.7 Edición profesional 0%
2012-12-12 06:55:56 Cyberlink MediaExpressio 0%
2012-12-12 06:58:15 CyberLink Power2Go 0%
2012-12-12 06:58:50 CyberLink PowerCinema v6.0.3316 0%
2012-12-12 06:58:52 CyberLink PowerDirector 0%
2012-12-12 07:01:09 Cyberlink youcam 20%
2012-12-12 09:33:34 E2e soft vcam 4.7 0%